User: anonymous
Location: Ladysmith
(45.4630°N, 91.1040°W)
Time: 14:08:47
(UTC-05:00)
Language:

SO-67 - Orbit

View from above orbital plane
View from above orbital plane
View from above satellite
View from above satellite

Ground track
Ground track

The orbit data is extracted from the following two-line orbital elements,

1 35870U 09049F   14244.48497566  .00006919  00000-0  21275-3 0  4674
2 35870 097.1593 263.3724 0002716 137.6341 000.7148 15.33981437275746
Epoch (UTC): 01 September 2014 11:38:21
Eccentricity: 0.0002716
inclination: 97.1593°
perigee height: 462 km
apogee height: 466 km
right ascension of ascending node: 263.3724°
argument of perigee: 137.6341°
revolutions per day: 15.33981437
mean anomaly at epoch: 0.7148°
orbit number at epoch: 27574

The dashed part of the orbit path shows where the satellite is in the earth's shadow,  

DLR